Time,TemperatureF,DewpointF,PressureIn,WindDirection,WindDirectionDegrees,WindSpeedMPH,WindSpeedGustMPH,Humidity,HourlyPrecipIn,Conditions,Clouds,dailyrainin,SoftwareType,DateUTC
2013-03-06 00:00:00,35.2,34.1,29.84,North,1,0.0,0.0,96,0.00,-SN,,0.00,WeatherDisplay:10.37,2013-03-06 05:00:00,
2013-03-06 01:00:00,34.0,33.0,29.81,North,2,0.0,0.0,96,0.00,OVC,,0.00,WeatherDisplay:10.37,2013-03-06 06:00:00,
2013-03-06 02:00:00,32.7,31.7,29.83,North,4,0.0,0.0,96,0.00, +SN,,0.00,WeatherDisplay:10.37,2013-03-06 07:00:00,
2013-03-06 03:00:00,31.6,30.6,29.83,North,1,0.0,0.0,96,0.00,OVC,,0.00,WeatherDisplay:10.37,2013-03-06 08:00:00,
2013-03-06 04:00:00,30.1,29.1,29.84,North,3,0.0,0.0,96,0.00,-SN,,0.00,WeatherDisplay:10.37,2013-03-06 09:00:00,
2013-03-06 05:00:00,29.0,28.0,29.86,North,1,0.0,0.0,96,0.00,-SN,,0.00,WeatherDisplay:10.37,2013-03-06 10:00:00,
2013-03-06 06:00:00,28.4,27.4,29.89,North,1,0.0,0.0,96,0.00,-SN,,0.00,WeatherDisplay:10.37,2013-03-06 11:00:00,
2013-03-06 07:00:00,28.0,27.0,29.90,North,3,0.0,0.0,96,0.00,-SN,,0.00,WeatherDisplay:10.37,2013-03-06 12:00:00,
2013-03-06 08:00:00,27.7,26.7,29.86,North,2,0.0,0.0,96,0.00,-SN,,0.00,WeatherDisplay:10.37,2013-03-06 13:00:00,
2013-03-06 09:00:00,27.6,26.6,29.88,North,2,0.0,0.0,96,0.00,-SN,,0.00,WeatherDisplay:10.37,2013-03-06 14:00:00,
2013-03-06 10:00:00,28.1,27.2,29.89,North,1,0.0,0.0,96,0.00,-SN,,0.00,WeatherDisplay:10.37,2013-03-06 15:00:00,
2013-03-06 11:00:00,29.2,28.2,29.91,North,3,0.0,0.0,96,0.00,OVC,,0.00,WeatherDisplay:10.37,2013-03-06 16:00:00,
2013-03-06 12:00:00,30.5,29.5,29.94,North,2,0.0,0.0,96,0.00,OVC,,0.00,WeatherDisplay:10.37,2013-03-06 17:00:00,
2013-03-06 13:00:00,31.3,30.3,29.95,North,3,0.0,0.0,96,0.00,OVC,,0.00,WeatherDisplay:10.37,2013-03-06 18:00:00,
2013-03-06 14:00:00,31.5,30.5,29.95,North,3,0.0,0.0,96,0.00,OVC,,0.00,WeatherDisplay:10.37,2013-03-06 19:00:00,
2013-03-06 15:00:00,31.8,30.7,29.97,North,3,0.0,0.0,96,0.00,OVC,,0.00,WeatherDisplay:10.37,2013-03-06 20:00:00,
2013-03-06 16:00:00,32.3,31.3,30.00,North,2,0.0,0.0,96,0.00,OVC,,0.00,WeatherDisplay:10.37,2013-03-06 21:00:00,
2013-03-06 17:00:00,32.7,31.7,30.02,North,3,0.0,0.0,96,0.00,OVC,,0.00,WeatherDisplay:10.37,2013-03-06 22:00:00,
2013-03-06 18:00:00,32.7,31.7,30.03,North,3,0.0,0.0,96,0.00,OVC,,0.00,WeatherDisplay:10.37,2013-03-06 23:00:00,
2013-03-06 19:00:00,32.3,31.3,30.06,North,3,0.0,0.0,96,0.00,OVC,,0.00,WeatherDisplay:10.37,2013-03-07 00:00:00,
2013-03-06 20:00:00,32.2,31.1,30.06,North,3,0.0,0.0,96,0.00,OVC,,0.00,WeatherDisplay:10.37,2013-03-07 01:00:00,
2013-03-06 21:00:00,32.1,31.1,30.07,North,4,0.0,0.0,96,0.00,OVC,,0.00,WeatherDisplay:10.37,2013-03-07 02:00:00,
2013-03-06 22:00:00,32.1,31.0,30.08,North,3,0.0,0.0,96,0.00,OVC,,0.00,WeatherDisplay:10.37,2013-03-07 03:00:00,
2013-03-06 23:00:00,32.0,31.0,30.08,North,3,0.0,0.0,96,0.00,OVC,,0.00,WeatherDisplay:10.37,2013-03-07 04:00:00,